Uvalde, Texas, United States (78801)
Lat: 29.21N, Lon: 99.79W
Wx Zone: TXZ203
Local Info
Past Weather Observations for Today

NOTE: This archive is for the closest National Weather Service station to Uvalde. Information may differ from the station used for current weather conditions.

Time Weather Temperature Dewpoint Humidity Pressure Winds Precip Visibility
20:55
Clear
81°F / 27°C 63°F / 17°C 54% 29.71 in
(1006 mb)
SE 26.5 mph
(SE 43 kph)
- 10SM
20:35
Clear
81°F / 27°C 63°F / 17°C 54% 29.71 in
(1006 mb)
SE 23 mph
(SE 37 kph)
- 10SM
20:15
Clear
82°F / 28°C 63°F / 17°C 51% 29.71 in
(1006 mb)
SE 21.9 mph
(SE 35 kph)
- 10SM
19:55
Clear
Light Rain
82°F / 28°C 61°F / 16°C 48% 29.77 in
(1008 mb)
SSE 11.5 mph
(SSE 19 kph)
- 10SM
19:35
Partly Cloudy
86°F / 30°C 63°F / 17°C 46% 29.8 in
(1009 mb)
SE 5.8 mph
(SE 9 kph)
- 10SM
19:15
Clear
86°F / 30°C 61°F / 16°C 43% 29.77 in
(1008 mb)
Calm - 10SM
18:55
Clear
86°F / 30°C 61°F / 16°C 43% 29.77 in
(1008 mb)
SE 4.6 mph
(SE 7 kph)
- 10SM
18:35
Clear
88°F / 31°C 61°F / 16°C 40% 29.74 in
(1007 mb)
SE 9.2 mph
(SE 15 kph)
- 10SM
18:15
Clear
88°F / 31°C 61°F / 16°C 40% 29.71 in
(1006 mb)
SE 13.8 mph
(SE 22 kph)
- 10SM
17:55
Clear
88°F / 31°C 59°F / 15°C 38% 29.74 in
(1007 mb)
SSE 13.8 mph
(SSE 22 kph)
- 10SM
17:35
Clear
88°F / 31°C 59°F / 15°C 38% 29.71 in
(1006 mb)
SE 15 mph
(SE 24 kph)
- 10SM
17:15
Clear
88°F / 31°C 61°F / 16°C 40% 29.71 in
(1006 mb)
SE 16.1 mph
(SE 26 kph)
- 10SM
16:55
Clear
90°F / 32°C 59°F / 15°C 36% 29.71 in
(1006 mb)
SE 15 mph
(SE 24 kph)
- 10SM
16:35
Clear
91°F / 33°C 59°F / 15°C 34% 29.74 in
(1007 mb)
S 16.1 mph
(S 26 kph)
- 10SM
16:15
Clear
91°F / 33°C 59°F / 15°C 34% 29.74 in
(1007 mb)
SE 15 mph
(SE 24 kph)
- 10SM
15:55
Clear
91°F / 33°C 61°F / 16°C 36% 29.74 in
(1007 mb)
SE 16.1 mph
(SE 26 kph)
- 10SM
15:35
Clear
91°F / 33°C 61°F / 16°C 36% 29.74 in
(1007 mb)
SSE 18.4 mph
(SSE 30 kph)
- 10SM
15:15
Clear
91°F / 33°C 61°F / 16°C 36% 29.74 in
(1007 mb)
SE 12.7 mph
(SE 20 kph)
- 10SM
14:55
Clear
91°F / 33°C 63°F / 17°C 38% 29.77 in
(1008 mb)
SSE 9.2 mph
(SSE 15 kph)
- 10SM
14:35
Clear
91°F / 33°C 61°F / 16°C 36% 29.77 in
(1008 mb)
SE 16.1 mph
(SE 26 kph)
- 10SM
14:15
Clear
90°F / 32°C 61°F / 16°C 38% 29.77 in
(1008 mb)
S 19.6 mph
(S 32 kph)
- 10SM
13:55
Clear
91°F / 33°C 61°F / 16°C 36% 29.8 in
(1009 mb)
S 15 mph
(S 24 kph)
- 10SM
13:35
Partly Cloudy
88°F / 31°C 61°F / 16°C 40% 29.8 in
(1009 mb)
SSE 13.8 mph
(SSE 22 kph)
- 10SM
13:15
Clear
88°F / 31°C 61°F / 16°C 40% 29.83 in
(1010 mb)
S 15 mph
(S 24 kph)
- 10SM
12:55
Clear
88°F / 31°C 63°F / 17°C 43% 29.83 in
(1010 mb)
SE 13.8 mph
(SE 22 kph)
- 10SM
12:35
Clear
88°F / 31°C 64°F / 18°C 46% 29.86 in
(1011 mb)
SSE 13.8 mph
(SSE 22 kph)
- 10SM
12:15
Clear
88°F / 31°C 64°F / 18°C 46% 29.86 in
(1011 mb)
SSE 17.3 mph
(SSE 28 kph)
- 10SM
11:35
Clear
86°F / 30°C 64°F / 18°C 49% 29.89 in
(1012 mb)
S 17.3 mph
(S 28 kph)
- 10SM
11:15
Partly Cloudy
82°F / 28°C 64°F / 18°C 55% 29.89 in
(1012 mb)
SSE 13.8 mph
(SSE 22 kph)
- 10SM
10:55
Clear
82°F / 28°C 66°F / 19°C 58% 29.92 in
(1013 mb)
S 13.8 mph
(S 22 kph)
- 10SM
10:35
Partly Cloudy
81°F / 27°C 66°F / 19°C 62% 29.92 in
(1013 mb)
SE 12.7 mph
(SE 20 kph)
- 10SM
10:15
Clear
79°F / 26°C 66°F / 19°C 65% 29.92 in
(1013 mb)
SE 13.8 mph
(SE 22 kph)
- 10SM
09:55
Clear
79°F / 26°C 66°F / 19°C 65% 29.92 in
(1013 mb)
SSE 13.8 mph
(SSE 22 kph)
- 10SM
09:35
Clear
79°F / 26°C 66°F / 19°C 65% 29.92 in
(1013 mb)
SSE 10.4 mph
(SSE 17 kph)
- 10SM
09:15
Clear
79°F / 26°C 68°F / 20°C 70% 29.92 in
(1013 mb)
S 12.7 mph
(S 20 kph)
- 10SM
08:55
Clear
75°F / 24°C 66°F / 19°C 74% 29.92 in
(1013 mb)
SE 11.5 mph
(SE 19 kph)
- 10SM
08:35
Clear
73°F / 23°C 66°F / 19°C 78% 29.92 in
(1013 mb)
SE 9.2 mph
(SE 15 kph)
- 10SM
08:15
Clear
73°F / 23°C 66°F / 19°C 78% 29.92 in
(1013 mb)
ESE 9.2 mph
(ESE 15 kph)
- 10SM
07:55
Clear
73°F / 23°C 68°F / 20°C 83% 29.92 in
(1013 mb)
ESE 9.2 mph
(ESE 15 kph)
- 10SM
07:35
Clear
70°F / 21°C 66°F / 19°C 88% 29.92 in
(1013 mb)
E 10.4 mph
(E 17 kph)
- 10SM
07:15
Clear
68°F / 20°C 64°F / 18°C 88% 29.92 in
(1013 mb)
E 6.9 mph
(E 11 kph)
- 10SM
06:55
Clear
68°F / 20°C 64°F / 18°C 88% 29.92 in
(1013 mb)
E 5.8 mph
(E 9 kph)
- 10SM
06:35
Partly Cloudy
68°F / 20°C 66°F / 19°C 94% 29.92 in
(1013 mb)
E 5.8 mph
(E 9 kph)
- 10SM
06:15
Clear
68°F / 20°C 66°F / 19°C 94% 29.92 in
(1013 mb)
E 4.6 mph
(E 7 kph)
- 10SM
05:55
Clear
68°F / 20°C 64°F / 18°C 88% 29.92 in
(1013 mb)
E 6.9 mph
(E 11 kph)
- 10SM
05:35
Clear
68°F / 20°C 64°F / 18°C 88% 29.92 in
(1013 mb)
E 5.8 mph
(E 9 kph)
- 10SM
05:15
Clear
68°F / 20°C 64°F / 18°C 88% 29.92 in
(1013 mb)
E 6.9 mph
(E 11 kph)
- 10SM
04:55
Clear
68°F / 20°C 64°F / 18°C 88% 29.92 in
(1013 mb)
E 5.8 mph
(E 9 kph)
- 10SM
04:35
Clear
68°F / 20°C 63°F / 17°C 83% 29.92 in
(1013 mb)
E 5.8 mph
(E 9 kph)
- 10SM
04:15
Clear
70°F / 21°C 64°F / 18°C 83% 29.92 in
(1013 mb)
ESE 6.9 mph
(ESE 11 kph)
- 10SM
03:55
Partly Cloudy
68°F / 20°C 63°F / 17°C 83% 29.92 in
(1013 mb)
E 5.8 mph
(E 9 kph)
- 10SM
03:35
Mostly Cloudy
68°F / 20°C 63°F / 17°C 83% 29.92 in
(1013 mb)
ENE 4.6 mph
(ENE 7 kph)
- 10SM
03:15
Mostly Cloudy
68°F / 20°C 63°F / 17°C 83% 29.92 in
(1013 mb)
NE 4.6 mph
(NE 7 kph)
- 10SM
02:55
Mostly Cloudy
70°F / 21°C 64°F / 18°C 83% 29.92 in
(1013 mb)
Calm - 10SM
02:35
Mostly Cloudy
72°F / 22°C 64°F / 18°C 78% 29.92 in
(1013 mb)
E 4.6 mph
(E 7 kph)
- 10SM
02:15
Mostly Cloudy
72°F / 22°C 64°F / 18°C 78% 29.92 in
(1013 mb)
E 5.8 mph
(E 9 kph)
- 10SM
01:55
Partly Cloudy
72°F / 22°C 63°F / 17°C 73% 29.92 in
(1013 mb)
E 6.9 mph
(E 11 kph)
- 10SM
01:35
Clear
72°F / 22°C 63°F / 17°C 73% 29.92 in
(1013 mb)
E 6.9 mph
(E 11 kph)
- 10SM
01:15
Clear
73°F / 23°C 63°F / 17°C 69% 29.92 in
(1013 mb)
E 6.9 mph
(E 11 kph)
- 10SM
00:55
Clear
73°F / 23°C 63°F / 17°C 69% 29.92 in
(1013 mb)
E 6.9 mph
(E 11 kph)
- 10SM
00:35
Clear
73°F / 23°C 61°F / 16°C 65% 29.92 in
(1013 mb)
E 9.2 mph
(E 15 kph)
- 10SM
00:15
Clear
73°F / 23°C 59°F / 15°C 61% 29.95 in
(1014 mb)
E 9.2 mph
(E 15 kph)
- 10SM
Time Weather Temperature Dewpoint Humidity Pressure Winds Precip Visibility


Weather for websites

WeatherForYou.com, LLC is not responsible for any damages or problems caused by this service. Current weather conditions are obtained from the closest station including government and personal stations which may have varying degrees of accuracy. Weather forecasts are derived from the NOAA NDFD. Like all things, this site belongs to Jesus Christ... He just trusts me to maintain it. If you have any questions or comments email webmaster@weatherforyou.com

Copyright © 2014, WeatherForYou.com LLC. All rights reserved.